Date String (YYYY-MM-DD hh:mm:ss) UTC,Instrument flags,Ambient pressure (hPa),Sample flow (lpm),Bypass flow (lpm),Sample temperature (°C),Ambient temperature (°C),ASC tube jacket temperature (°C),LED temperature (°C),Box temperature (°C),Sample RH (%),Span deviation,Mass concentration (μg/m³),Mass concentration (μg/m³),Mass concentration (μg/m³)
DateTimeUTC,F1_M11,P_M11,Q1_M11,Q2_M11,T1_M11,T2_M11,T3_M11,T4_M11,T5_M11,U1_M11,ZSPAN_M11,X0_M11,X2_M11,X1_M11
2022-02-27 04:00:00,,0833.2,5.00,0.00,21.9,21.6,00.0,30.9,23.6,08.1,0001.5,0019.49,0012.77,0011.95
2022-02-27 04:01:00,,0833.2,5.00,0.00,21.9,21.5,00.0,30.9,23.5,08.2,0001.8,0019.67,0012.82,0011.98
2022-02-27 04:02:00,,0833.3,5.01,0.00,21.8,21.4,00.0,30.9,23.5,08.3,0002.2,0019.76,0012.86,0012.01
2022-02-27 04:03:00,,0833.3,4.98,0.00,21.8,21.3,00.0,30.9,23.4,08.3,0002.8,0019.72,0012.85,0012.03
2022-02-27 04:04:00,,0833.3,5.00,0.00,21.8,21.1,00.0,30.9,23.4,08.3,0002.8,0019.69,0012.86,0012.06
2022-02-27 04:05:00,,0833.3,5.02,0.00,21.7,21.1,00.0,30.9,23.3,08.4,0002.5,0019.67,0012.84,0012.05
2022-02-27 04:06:00,,0833.2,5.00,0.00,21.7,21.0,00.0,30.9,23.2,08.3,0002.6,0019.21,0012.84,0012.05
2022-02-27 04:07:00,,0833.2,5.00,0.00,21.6,20.9,00.0,30.9,23.2,08.3,0002.7,0018.54,0012.90,0012.06
2022-02-27 04:08:00,,0833.2,4.99,0.00,21.6,20.9,00.0,30.8,23.2,08.3,0002.5,0018.70,0012.91,0012.04
2022-02-27 04:09:00,,0833.1,5.01,0.00,21.6,20.9,00.0,30.8,23.2,08.3,0002.1,0019.01,0012.92,0012.04
2022-02-27 04:10:00,,0833.1,5.00,0.00,21.7,21.5,00.0,30.8,23.3,08.2,0002.4,0018.58,0012.88,0012.00
2022-02-27 04:11:00,,0833.2,5.01,0.00,21.8,22.3,00.0,30.9,23.7,08.1,0002.5,0018.38,0012.87,0011.97
2022-02-27 04:12:00,,0833.2,5.01,0.00,21.9,22.7,00.0,30.9,23.9,08.0,0002.7,0018.22,0012.86,0011.93
2022-02-27 04:13:00,,0833.1,4.98,0.00,22.0,22.5,00.0,30.9,23.9,08.1,0002.5,0018.11,0012.86,0011.93
2022-02-27 04:14:00,,0833.1,5.00,0.00,21.9,22.2,00.0,30.9,23.8,08.2,0002.2,0018.11,0012.89,0011.97
2022-02-27 04:15:00,,0833.1,5.01,0.00,21.9,21.9,00.0,30.9,23.7,08.2,0002.3,0018.23,0012.91,0011.99
2022-02-27 04:16:00,,0833.1,4.99,0.00,21.9,21.8,00.0,30.9,23.6,08.2,0002.5,0018.38,0012.95,0012.00
2022-02-27 04:17:00,,0833.1,5.01,0.00,21.9,21.6,00.0,30.9,23.6,08.2,0002.5,0018.98,0012.96,0011.98
2022-02-27 04:18:00,,0833.1,5.00,0.00,21.9,21.5,00.0,30.9,23.5,08.0,0002.7,0019.26,0012.91,0011.96
2022-02-27 04:19:00,,0833.1,4.99,0.00,21.8,21.4,00.0,30.9,23.5,08.0,0003.0,0019.10,0012.88,0011.94
2022-02-27 04:20:00,,0833.1,5.00,0.00,21.8,21.3,00.0,30.9,23.4,08.0,0003.4,0018.27,0012.81,0011.89
2022-02-27 04:21:00,,0833.2,4.99,0.00,21.8,21.2,00.0,30.9,23.4,08.1,0003.2,0018.12,0012.77,0011.88
2022-02-27 04:22:00,,0833.1,5.01,0.00,21.8,21.2,00.0,30.9,23.4,08.0,0003.3,0018.28,0012.70,0011.86
2022-02-27 04:23:00,,0833.2,5.00,0.00,21.7,21.1,00.0,30.9,23.4,08.0,0003.1,0018.15,0012.60,0011.79
2022-02-27 04:24:00,,0833.1,5.01,0.00,21.7,21.1,00.0,30.8,23.4,08.1,0003.1,0018.20,0012.56,0011.72
2022-02-27 04:25:00,,0833.2,4.98,0.00,21.7,21.1,00.0,30.8,23.3,08.2,0002.8,0018.69,0012.54,0011.68
2022-02-27 04:26:00,,0833.1,5.00,0.00,21.7,21.1,00.0,30.8,23.3,08.2,0002.5,0019.58,0012.49,0011.66
2022-02-27 04:27:00,,0833.1,5.01,0.00,21.7,21.6,00.0,30.8,23.5,08.2,0002.5,0019.74,0012.48,0011.68
2022-02-27 04:28:00,,0833.1,5.01,0.00,21.9,22.4,00.0,30.9,23.8,08.1,0001.7,0019.07,0012.46,0011.70
2022-02-27 04:29:00,,0833.1,4.99,0.00,22.0,22.9,00.0,30.9,24.0,08.0,0001.3,0018.73,0012.51,0011.74
2022-02-27 04:30:00,,0833.1,5.01,0.00,22.1,22.7,00.0,30.9,24.0,07.8,0001.4,0018.81,0012.54,0011.77
2022-02-27 04:31:00,,0833.1,4.99,0.00,22.1,22.4,00.0,31.0,24.0,07.9,0001.5,0018.77,0012.53,0011.80
2022-02-27 04:32:00,,0833.1,4.99,0.00,22.1,22.2,00.0,31.0,23.9,07.9,0001.5,0018.78,0012.51,0011.78
2022-02-27 04:33:00,,0833.1,5.01,0.00,22.1,22.0,00.0,31.0,23.9,07.9,0001.4,0018.58,0012.54,0011.77
2022-02-27 04:34:00,,0833.1,5.00,0.00,22.0,21.9,00.0,31.0,23.8,07.9,0001.3,0018.61,0012.51,0011.75
2022-02-27 04:35:00,,0833.1,5.00,0.00,22.0,21.7,00.0,31.0,23.7,07.8,0001.7,0018.41,0012.38,0011.65
2022-02-27 04:36:00,,0833.1,5.00,0.00,22.0,21.6,00.0,31.0,23.7,07.7,0002.0,0017.82,0012.24,0011.52
2022-02-27 04:37:00,,0833.1,5.00,0.00,22.0,21.4,00.0,31.0,23.6,07.6,0002.3,0016.72,0012.09,0011.34
2022-02-27 04:38:00,,0833.2,5.00,0.00,21.9,21.3,00.0,31.0,23.6,07.5,0002.5,0016.41,0011.84,0011.08
2022-02-27 04:39:00,,0833.2,5.00,0.00,21.9,21.2,00.0,31.0,23.5,07.3,0002.8,0016.12,0011.53,0010.77
2022-02-27 04:40:00,,0833.2,5.00,0.00,21.8,21.1,00.0,31.0,23.5,07.2,0003.1,0015.71,0011.17,0010.43
2022-02-27 04:41:00,,0833.1,5.00,0.00,21.8,21.1,00.0,30.9,23.4,07.1,0003.0,0015.18,0010.77,0010.07
2022-02-27 04:42:00,,0833.1,4.98,0.00,21.7,21.0,00.0,30.9,23.4,07.1,0002.7,0014.78,0010.39,0009.70
2022-02-27 04:43:00,,0833.1,5.00,0.00,21.7,21.0,00.0,30.9,23.3,07.0,0002.4,0014.68,0009.99,0009.31
2022-02-27 04:44:00,,0833.1,5.00,0.00,21.8,21.4,00.0,30.9,23.5,06.9,0002.2,0014.17,0009.51,0008.88
2022-02-27 04:45:00,,0833.2,5.00,0.00,21.9,22.2,00.0,30.9,23.7,06.7,0002.6,0013.82,0009.11,0008.50
2022-02-27 04:46:00,,0833.2,5.02,0.00,22.0,22.9,00.0,31.0,24.0,06.7,0003.1,0013.72,0008.76,0008.15
2022-02-27 04:47:00,,0833.2,4.99,0.00,22.2,23.0,00.0,31.0,24.1,06.6,0003.0,0013.42,0008.50,0007.84
2022-02-27 04:48:00,,0833.2,5.00,0.00,22.2,22.7,00.0,31.0,24.1,06.6,0002.3,0013.12,0008.17,0007.54
2022-02-27 04:49:00,,0833.2,4.99,0.00,22.1,22.4,00.0,31.0,23.9,06.6,0002.3,0012.64,0007.90,0007.30
2022-02-27 04:50:00,,0833.2,5.01,0.00,22.1,22.1,00.0,31.0,23.8,06.5,0002.5,0012.43,0007.72,0007.10
2022-02-27 04:51:00,,0833.2,4.99,0.00,22.1,21.9,00.0,31.0,23.7,06.6,0002.4,0012.25,0007.55,0006.93
2022-02-27 04:52:00,,0833.1,5.00,0.00,22.0,21.7,00.0,31.0,23.7,06.4,0002.1,0012.09,0007.36,0006.74
2022-02-27 04:53:00,,0833.1,5.01,0.00,22.0,21.5,00.0,31.0,23.6,06.5,0002.4,0011.88,0007.21,0006.57
2022-02-27 04:54:00,,0833.1,5.00,0.00,21.9,21.4,00.0,31.0,23.5,06.5,0003.2,0011.46,0007.11,0006.48
2022-02-27 04:55:00,,0833.2,5.00,0.00,21.9,21.3,00.0,31.0,23.5,06.7,0003.6,0011.34,0007.15,0006.49
2022-02-27 04:56:00,,0833.1,5.00,0.00,21.8,21.2,00.0,31.0,23.4,06.8,0003.7,0011.38,0007.25,0006.56
2022-02-27 04:57:00,,0833.1,5.00,0.00,21.8,21.1,00.0,31.0,23.4,06.8,0003.0,0011.17,0007.34,0006.63
2022-02-27 04:58:00,,0833.2,4.99,0.00,21.8,21.0,00.0,30.9,23.3,06.8,0003.5,0011.61,0007.38,0006.70
2022-02-27 04:59:00,,0833.2,5.00,0.00,21.7,21.0,00.0,30.9,23.3,06.7,0004.2,0011.96,0007.32,0006.70
